Flag for Syria Weather past 2 weeks in Aleppo, Syria

Now
80 °F

Thundershowers. Partly sunny.


Feels Like: 82 °F
Forecast: 65 / 87 °F
Wind: 7 mph from Northwest

Location: Iskenderun

Current Time: Sep 18, 2014 at 3:49:33 PM

Latest Report: Sep 18, 2014 at 3:00 PM


Visibility: 9 mi

Pressure: 29.87 "Hg

Humidity: 66%

Dew point: 67 °F

Location of AleppoLocation

Historic Weather in Aleppo — Graph

°F

Aleppo temperature yesterday

Maximum temperature yesterday: 85 °F (at 3:00 PM)
Minimum temperature yesterday: 76 °F (at 6:00 AM)
Average temperature yesterday: 81 °F

Past Weeks' High & Low Weather Summary

 TemperatureHumidityPressure
High88 °F (Sep 5, 2:00 PM)89% (Sep 14, 4:00 AM)29.92 "Hg (Sep 14, 4:00 AM)
Low66 °F (Sep 15, 9:00 PM)41% (Sep 15, 8:00 PM)29.66 "Hg (Sep 6, 4:00 AM)
Average82 °F65%29.81 "Hg
* Reported Sep 3 2:00 PM — Sep 18 2:00 PM, Aleppo, Weather by CustomWeather, © 2014

Note: Actual official high and low records may vary slightly from our data, if they occured in-between our weather recording intervals... More about our weather records

Advertising

Aleppo weather history for previous 24 hours

 ConditionsComfort  
Time TempWeatherWind HumidityBarometerVisibility
2:00 PM
Sep 18
81 °FThunderstorms. Partly sunny.1 mph52%29.86 "Hg9 mi
1:00 PM80 °FPartly sunny.5 mph60%29.86 "Hg12 mi
12:00 PM76 °FThunderstorms. Scattered clouds.1 mph78%29.88 "Hg12 mi
11:00 AM72 °FThundershowers. Partly sunny.2 mph84%29.88 "Hg6 mi
10:00 AM76 °FThundershowers. Partly sunny.15 mph68%29.87 "Hg9 mi
9:00 AM82 °FPartly sunny.3 mph52%29.81 "Hg9 mi
8:00 AM79 °FPartly sunny.2 mph54%29.81 "Hg9 mi
7:00 AM77 °FThunderstorms. Partly sunny.2 mph59%29.81 "Hg9 mi
6:00 AM75 °FThunderstorms. Passing clouds.1 mph59%29.78 "Hg9 mi
5:00 AM76 °FThunderstorms. Overcast.1 mph53%29.78 "Hg9 mi
4:00 AM77 °FPassing clouds.2 mph49%29.77 "Hg9 mi
3:00 AM77 °FPassing clouds.No wind57%29.77 "Hg9 mi
2:00 AM77 °FPassing clouds.No wind62%29.77 "Hg9 mi
1:00 AM78 °FPassing clouds.2 mph62%29.78 "Hg9 mi
12:00 AM78 °FPassing clouds.1 mph64%29.78 "Hg9 mi
11:00 PM
Sep 17
N/APassing clouds.N/AN/AN/A2 mi
10:00 PM80 °FPassing clouds.2 mph59%29.79 "Hg9 mi
9:00 PM81 °FPassing clouds.5 mph59%29.78 "Hg9 mi
8:00 PM81 °FPassing clouds.5 mph59%29.77 "Hg9 mi
7:00 PM82 °FPassing clouds.3 mph54%29.76 "Hg9 mi
6:00 PM83 °FScattered clouds.5 mph52%29.75 "Hg9 mi
5:00 PM84 °FScattered clouds.6 mph55%29.77 "Hg9 mi
4:00 PM84 °FScattered clouds.5 mph54%29.77 "Hg9 mi
3:00 PM85 °FScattered clouds.2 mph54%29.78 "Hg9 mi
Weather by CustomWeather, © 2014

See weather overviewHow to use our weather pages